Time,TemperatureF,DewpointF,PressureIn,WindDirection,WindDirectionDegrees,WindSpeedMPH,WindSpeedGustMPH,Humidity,HourlyPrecipIn,Conditions,Clouds,dailyrainin,SoftwareType,DateUTC
2013-03-21 00:04:00,67.9,62.5,30.03,SSE,153,0.0,0.0,83,0.00,,---,0.00,VWS V14.00,2013-03-21 10:04:00,
2013-03-21 00:09:00,67.7,62.4,30.04,SSE,153,0.0,0.0,83,0.00,,---,0.00,VWS V14.00,2013-03-21 10:09:00,
2013-03-21 00:14:00,67.6,62.6,30.04,SSE,153,0.0,0.0,84,0.00,,---,0.00,VWS V14.00,2013-03-21 10:14:00,
2013-03-21 00:19:00,67.5,62.5,30.03,SSE,153,0.0,0.0,84,0.00,,---,0.00,VWS V14.00,2013-03-21 10:19:00,
2013-03-21 00:24:00,67.4,62.4,30.03,SSE,153,0.0,0.0,84,0.00,,---,0.00,VWS V14.00,2013-03-21 10:24:00,
2013-03-21 00:29:00,67.4,62.4,30.03,SSE,153,0.0,0.0,84,0.00,,---,0.00,VWS V14.00,2013-03-21 10:29:00,
2013-03-21 00:34:00,67.3,62.6,30.03,SSE,153,0.0,0.0,85,0.00,,---,0.00,VWS V14.00,2013-03-21 10:34:00,
2013-03-21 00:39:00,67.2,62.5,30.03,SSE,153,0.0,0.0,85,0.00,,---,0.00,VWS V14.00,2013-03-21 10:39:00,
2013-03-21 00:44:00,67.2,62.5,30.03,SSE,153,0.0,0.0,85,0.00,,---,0.00,VWS V14.00,2013-03-21 10:44:00,
2013-03-21 00:49:00,67.1,62.5,30.03,SSE,153,0.0,0.0,85,0.00,,---,0.00,VWS V14.00,2013-03-21 10:49:00,
2013-03-21 00:54:00,67.0,62.3,30.03,SSE,153,0.0,0.0,85,0.00,,---,0.00,VWS V14.00,2013-03-21 10:54:00,
2013-03-21 00:59:00,66.9,62.2,30.03,SSE,153,0.0,0.0,85,0.00,,---,0.00,VWS V14.00,2013-03-21 10:59:00,
2013-03-21 01:04:00,66.8,62.5,30.03,SSE,153,0.0,0.0,86,0.00,,---,0.00,VWS V14.00,2013-03-21 11:04:00,
2013-03-21 01:09:00,66.6,62.0,30.02,SSE,153,0.0,0.0,85,0.00,,---,0.00,VWS V14.00,2013-03-21 11:09:00,
2013-03-21 01:14:00,66.6,62.3,30.02,SSE,153,0.0,0.0,86,0.00,,---,0.00,VWS V14.00,2013-03-21 11:14:00,
2013-03-21 01:19:00,66.6,62.3,30.02,SSE,153,0.0,0.0,86,0.00,,---,0.00,VWS V14.00,2013-03-21 11:19:00,
2013-03-21 01:24:00,66.6,62.3,30.02,SSE,153,0.0,0.0,86,0.00,,---,0.00,VWS V14.00,2013-03-21 11:24:00,
2013-03-21 01:29:00,66.6,62.3,30.02,SSE,153,0.0,0.0,86,0.00,,---,0.00,VWS V14.00,2013-03-21 11:29:00,
2013-03-21 01:34:00,66.6,62.6,30.02,SSE,153,0.0,0.0,87,0.00,,---,0.00,VWS V14.00,2013-03-21 11:34:00,
2013-03-21 01:39:00,66.6,62.3,30.01,SSE,153,0.0,0.0,86,0.00,,---,0.00,VWS V14.00,2013-03-21 11:39:00,
2013-03-21 01:44:00,66.6,62.6,30.02,SSE,153,0.0,0.0,87,0.00,,---,0.00,VWS V14.00,2013-03-21 11:44:00,
2013-03-21 01:49:00,66.7,62.7,30.01,SSE,153,0.0,0.0,87,0.00,,---,0.00,VWS V14.00,2013-03-21 11:49:00,
2013-03-21 01:54:00,66.7,62.7,30.00,SSE,153,0.0,0.0,87,0.00,,---,0.00,VWS V14.00,2013-03-21 11:54:00,
2013-03-21 01:59:00,66.7,62.4,30.00,SSE,153,0.0,0.0,86,0.00,,---,0.00,VWS V14.00,2013-03-21 11:59:00,
2013-03-21 02:04:00,66.7,62.4,30.00,SSE,153,0.0,0.0,86,0.00,,---,0.00,VWS V14.00,2013-03-21 12:04:00,
2013-03-21 02:09:00,66.6,62.6,30.01,SSE,153,0.0,0.0,87,0.00,,---,0.00,VWS V14.00,2013-03-21 12:09:00,
2013-03-21 02:14:00,66.6,62.6,30.00,SSE,153,0.0,0.0,87,0.00,,---,0.00,VWS V14.00,2013-03-21 12:14:00,
2013-03-21 02:19:00,66.6,62.6,30.00,SSE,153,0.0,0.0,87,0.00,,---,0.00,VWS V14.00,2013-03-21 12:19:00,
2013-03-21 02:24:00,66.5,62.5,30.01,SSE,153,0.0,0.0,87,0.00,,---,0.00,VWS V14.00,2013-03-21 12:24:00,
2013-03-21 02:29:00,66.5,62.5,30.00,SSE,153,0.0,0.0,87,0.00,,---,0.00,VWS V14.00,2013-03-21 12:29:00,
2013-03-21 02:34:00,66.5,62.5,30.00,SSE,153,0.0,0.0,87,0.00,,---,0.00,VWS V14.00,2013-03-21 12:34:00,
2013-03-21 02:39:00,66.5,62.5,30.00,SSE,153,0.0,0.0,87,0.00,,---,0.00,VWS V14.00,2013-03-21 12:39:00,
2013-03-21 02:44:00,66.6,62.6,30.00,SSE,153,0.0,0.0,87,0.00,,---,0.00,VWS V14.00,2013-03-21 12:44:00,
2013-03-21 02:49:00,66.6,62.6,30.00,SSE,153,0.0,0.0,87,0.00,,---,0.00,VWS V14.00,2013-03-21 12:49:00,
2013-03-21 02:54:00,66.7,63.0,30.00,SSE,153,0.0,0.0,88,0.00,,---,0.00,VWS V14.00,2013-03-21 12:54:00,
2013-03-21 02:59:00,66.8,62.8,30.00,SSE,153,0.0,0.0,87,0.00,,---,0.00,VWS V14.00,2013-03-21 12:59:00,
2013-03-21 03:04:00,67.0,63.0,29.99,SSE,153,0.0,0.0,87,0.00,,---,0.00,VWS V14.00,2013-03-21 13:04:00,
2013-03-21 03:09:00,67.0,63.0,29.99,SSE,153,0.0,0.0,87,0.00,,---,0.00,VWS V14.00,2013-03-21 13:09:00,
2013-03-21 03:14:00,67.0,63.0,29.99,SSE,153,0.0,0.0,87,0.00,,---,0.00,VWS V14.00,2013-03-21 13:14:00,
2013-03-21 03:19:00,67.2,63.2,29.99,SSE,153,0.0,0.0,87,0.00,,---,0.00,VWS V14.00,2013-03-21 13:19:00,
2013-03-21 03:24:00,67.3,63.3,29.99,SSE,153,0.0,0.0,87,0.00,,---,0.00,VWS V14.00,2013-03-21 13:24:00,
2013-03-21 03:29:00,67.4,63.4,29.99,SSE,153,0.0,0.0,87,0.00,,---,0.00,VWS V14.00,2013-03-21 13:29:00,
2013-03-21 03:34:00,67.5,63.5,29.99,SSE,153,0.0,0.0,87,0.00,,---,0.00,VWS V14.00,2013-03-21 13:34:00,
2013-03-21 03:39:00,67.6,63.6,29.99,SSE,153,0.0,0.0,87,0.00,,---,0.00,VWS V14.00,2013-03-21 13:39:00,
2013-03-21 03:44:00,67.6,63.6,29.99,SSE,153,0.0,0.0,87,0.00,,---,0.00,VWS V14.00,2013-03-21 13:44:00,
2013-03-21 03:49:00,67.6,63.6,30.00,SSE,153,0.0,0.0,87,0.00,,---,0.00,VWS V14.00,2013-03-21 13:49:00,
2013-03-21 03:54:00,67.7,63.4,29.99,SSE,153,0.0,0.0,86,0.00,,---,0.00,VWS V14.00,2013-03-21 13:54:00,
2013-03-21 03:59:00,67.8,63.5,29.99,SSE,153,0.0,0.0,86,0.00,,---,0.00,VWS V14.00,2013-03-21 13:59:00,
2013-03-21 04:04:00,67.9,63.6,30.00,SSE,153,0.0,0.0,86,0.00,,---,0.00,VWS V14.00,2013-03-21 14:04:00,
2013-03-21 04:09:00,68.0,63.7,30.00,SSE,153,0.0,0.0,86,0.00,,---,0.00,VWS V14.00,2013-03-21 14:09:00,
2013-03-21 04:14:00,68.1,63.8,30.00,SSE,153,0.0,0.0,86,0.00,,---,0.00,VWS V14.00,2013-03-21 14:14:00,
2013-03-21 04:19:00,68.2,63.9,30.00,SSE,153,0.0,0.0,86,0.00,,---,0.00,VWS V14.00,2013-03-21 14:19:00,
2013-03-21 04:24:00,68.3,64.0,30.00,SSE,153,0.0,0.0,86,0.00,,---,0.00,VWS V14.00,2013-03-21 14:24:00,
2013-03-21 04:29:00,68.3,64.0,30.00,SSE,153,0.0,0.0,86,0.00,,---,0.00,VWS V14.00,2013-03-21 14:29:00,
2013-03-21 04:34:00,68.4,64.1,30.01,SSE,153,0.0,0.0,86,0.00,,---,0.00,VWS V14.00,2013-03-21 14:34:00,
2013-03-21 04:39:00,68.5,64.2,30.01,SSE,153,0.0,0.0,86,0.00,,---,0.00,VWS V14.00,2013-03-21 14:39:00,
2013-03-21 04:44:00,68.6,64.2,30.01,SSE,153,0.0,0.0,86,0.00,,---,0.00,VWS V14.00,2013-03-21 14:44:00,
2013-03-21 04:49:00,68.6,64.2,30.01,SSE,153,0.0,0.0,86,0.00,,---,0.00,VWS V14.00,2013-03-21 14:49:00,
2013-03-21 04:54:00,68.6,64.2,30.01,SSE,153,0.0,0.0,86,0.00,,---,0.00,VWS V14.00,2013-03-21 14:54:00,
2013-03-21 04:59:00,68.7,64.3,30.01,SSE,153,0.0,0.0,86,0.00,,---,0.00,VWS V14.00,2013-03-21 14:59:00,
2013-03-21 05:04:00,68.7,64.3,30.01,SSE,153,0.0,0.0,86,0.00,,---,0.00,VWS V14.00,2013-03-21 15:04:00,
2013-03-21 05:09:00,68.7,64.3,30.01,SSE,153,0.0,0.0,86,0.00,,---,0.00,VWS V14.00,2013-03-21 15:09:00,
2013-03-21 05:14:00,68.7,64.3,30.01,SSE,153,0.0,0.0,86,0.00,,---,0.00,VWS V14.00,2013-03-21 15:14:00,
2013-03-21 05:19:00,68.7,64.3,30.01,SSE,153,0.0,0.0,86,0.00,,---,0.00,VWS V14.00,2013-03-21 15:19:00,
2013-03-21 05:24:00,68.7,64.3,30.01,SSE,153,0.0,0.0,86,0.00,,---,0.00,VWS V14.00,2013-03-21 15:24:00,
2013-03-21 05:29:00,68.7,64.3,30.01,SSE,153,0.0,0.0,86,0.00,,---,0.00,VWS V14.00,2013-03-21 15:29:00,
2013-03-21 05:34:00,68.7,64.3,30.01,SSE,153,0.0,0.0,86,0.00,,---,0.00,VWS V14.00,2013-03-21 15:34:00,
2013-03-21 05:39:00,68.8,64.4,30.01,SSE,153,0.0,0.0,86,0.00,,---,0.00,VWS V14.00,2013-03-21 15:39:00,
2013-03-21 05:44:00,68.8,64.4,30.01,SSE,153,0.0,0.0,86,0.00,,---,0.00,VWS V14.00,2013-03-21 15:44:00,
2013-03-21 05:49:00,68.7,64.0,30.01,SSE,153,0.0,0.0,85,0.00,,---,0.00,VWS V14.00,2013-03-21 15:49:00,
2013-03-21 05:54:00,68.7,64.0,30.02,SSE,153,0.0,0.0,85,0.00,,---,0.00,VWS V14.00,2013-03-21 15:54:00,
2013-03-21 05:59:00,68.7,64.0,30.02,SSE,153,0.0,0.0,85,0.00,,---,0.00,VWS V14.00,2013-03-21 15:59:00,
2013-03-21 06:04:00,68.6,64.2,30.02,SSE,153,0.0,0.0,86,0.00,,---,0.00,VWS V14.00,2013-03-21 16:04:00,
2013-03-21 06:09:00,68.6,64.2,30.02,SSE,153,0.0,0.0,86,0.00,,---,0.00,VWS V14.00,2013-03-21 16:09:00,
2013-03-21 06:14:00,68.6,64.2,30.02,SSE,153,0.0,0.0,86,0.00,,---,0.00,VWS V14.00,2013-03-21 16:14:00,
2013-03-21 06:19:00,68.5,64.2,30.02,SSE,153,0.0,0.0,86,0.00,,---,0.00,VWS V14.00,2013-03-21 16:19:00,
2013-03-21 06:24:00,68.5,64.2,30.03,SSE,153,0.0,0.0,86,0.00,,---,0.00,VWS V14.00,2013-03-21 16:24:00,
2013-03-21 06:29:00,68.3,64.0,30.03,SSE,153,0.0,0.0,86,0.00,,---,0.00,VWS V14.00,2013-03-21 16:29:00,
2013-03-21 06:34:00,68.2,63.9,30.03,SSE,153,0.0,0.0,86,0.00,,---,0.00,VWS V14.00,2013-03-21 16:34:00,
2013-03-21 06:39:00,68.1,63.8,30.03,SSE,153,0.0,0.0,86,0.00,,---,0.00,VWS V14.00,2013-03-21 16:39:00,
2013-03-21 06:44:00,68.0,63.7,30.03,SSE,153,0.0,0.0,86,0.00,,---,0.00,VWS V14.00,2013-03-21 16:44:00,
2013-03-21 06:49:00,67.9,63.9,30.03,SSE,153,0.0,0.0,87,0.00,,---,0.00,VWS V14.00,2013-03-21 16:49:00,
2013-03-21 06:54:00,67.9,63.9,30.03,SSE,153,0.0,0.0,87,0.00,,---,0.00,VWS V14.00,2013-03-21 16:54:00,
2013-03-21 06:59:00,67.9,63.9,30.04,SSE,153,0.0,0.0,87,0.00,,---,0.00,VWS V14.00,2013-03-21 16:59:00,
2013-03-21 07:04:00,67.9,63.9,30.04,SSE,153,0.0,0.0,87,0.00,,---,0.00,VWS V14.00,2013-03-21 17:04:00,
2013-03-21 07:09:00,67.9,63.9,30.04,SSE,153,0.0,0.0,87,0.00,,---,0.00,VWS V14.00,2013-03-21 17:09:00,
2013-03-21 07:14:00,67.9,63.9,30.04,SSE,153,0.0,0.0,87,0.00,,---,0.00,VWS V14.00,2013-03-21 17:14:00,
2013-03-21 07:19:00,68.1,64.4,30.04,SSE,153,0.0,0.0,88,0.00,,---,0.00,VWS V14.00,2013-03-21 17:19:00,
2013-03-21 07:24:00,68.2,64.5,30.04,SSE,153,0.0,0.0,88,0.00,,---,0.00,VWS V14.00,2013-03-21 17:24:00,
2013-03-21 07:29:00,68.4,64.7,30.04,SSE,153,0.0,0.0,88,0.00,,---,0.00,VWS V14.00,2013-03-21 17:29:00,
2013-03-21 07:34:00,68.7,65.0,30.04,SSE,153,0.0,0.0,88,0.00,,---,0.00,VWS V14.00,2013-03-21 17:34:00,
2013-03-21 07:39:00,69.1,65.4,30.05,SSE,153,0.0,0.0,88,0.00,,---,0.00,VWS V14.00,2013-03-21 17:39:00,
2013-03-21 07:44:00,69.4,65.7,30.05,SSE,153,0.0,0.0,88,0.00,,---,0.00,VWS V14.00,2013-03-21 17:44:00,
2013-03-21 07:49:00,69.9,66.5,30.05,SSE,153,0.0,0.0,89,0.00,,---,0.00,VWS V14.00,2013-03-21 17:49:00,
2013-03-21 07:54:00,70.5,67.1,30.05,SSE,153,0.0,0.0,89,0.00,,---,0.00,VWS V14.00,2013-03-21 17:54:00,
2013-03-21 07:59:00,71.1,67.7,30.05,SSE,153,0.0,0.0,89,0.00,,---,0.00,VWS V14.00,2013-03-21 17:59:00,
2013-03-21 08:04:00,71.4,67.3,30.05,SSE,153,0.0,0.0,87,0.00,,---,0.00,VWS V14.00,2013-03-21 18:04:00,
2013-03-21 08:09:00,71.9,67.8,30.05,SSE,153,0.0,0.0,87,0.00,,---,0.00,VWS V14.00,2013-03-21 18:09:00,
2013-03-21 08:14:00,72.5,68.4,30.06,SSE,153,0.0,0.0,87,0.00,,---,0.00,VWS V14.00,2013-03-21 18:14:00,
2013-03-21 08:19:00,73.1,69.0,30.06,SSE,153,0.0,1.0,87,0.00,,---,0.00,VWS V14.00,2013-03-21 18:19:00,
2013-03-21 08:24:00,73.7,69.3,30.05,SSE,153,2.0,4.0,86,0.00,,---,0.00,VWS V14.00,2013-03-21 18:24:00,
2013-03-21 08:29:00,74.1,69.0,30.05,SSE,153,1.0,4.0,84,0.00,,---,0.00,VWS V14.00,2013-03-21 18:29:00,
2013-03-21 08:34:00,74.5,68.3,30.05,SSE,153,0.0,1.0,81,0.00,,---,0.00,VWS V14.00,2013-03-21 18:34:00,
2013-03-21 08:39:00,75.0,68.1,30.05,SSE,153,5.0,6.0,79,0.00,,---,0.00,VWS V14.00,2013-03-21 18:39:00,
2013-03-21 08:44:00,75.6,67.9,30.05,SSE,153,2.0,6.0,77,0.00,,---,0.00,VWS V14.00,2013-03-21 18:44:00,
2013-03-21 08:49:00,76.1,68.0,30.06,SE,138,0.0,6.0,76,0.00,,---,0.00,VWS V14.00,2013-03-21 18:49:00,
2013-03-21 08:54:00,76.8,68.3,30.06,ESE,121,0.0,6.0,75,0.00,,---,0.00,VWS V14.00,2013-03-21 18:54:00,
2013-03-21 08:59:00,77.2,68.3,30.06,SE,126,2.0,9.0,74,0.00,,---,0.00,VWS V14.00,2013-03-21 18:59:00,
2013-03-21 09:04:00,77.6,68.3,30.06,ESE,122,1.0,5.0,73,0.00,,---,0.00,VWS V14.00,2013-03-21 19:04:00,
2013-03-21 09:09:00,77.8,68.5,30.06,SE,129,0.0,9.0,73,0.00,,---,0.00,VWS V14.00,2013-03-21 19:09:00,
2013-03-21 09:14:00,77.9,68.6,30.06,ESE,119,4.0,9.0,73,0.00,,---,0.00,VWS V14.00,2013-03-21 19:14:00,
2013-03-21 09:19:00,77.8,68.5,30.06,ENE,67,1.0,9.0,73,0.00,,---,0.00,VWS V14.00,2013-03-21 19:19:00,
2013-03-21 09:24:00,77.5,68.6,30.06,East,98,5.0,9.0,74,0.00,,---,0.00,VWS V14.00,2013-03-21 19:24:00,
2013-03-21 09:29:00,77.7,69.2,30.06,ESE,103,1.0,9.0,75,0.00,,---,0.00,VWS V14.00,2013-03-21 19:29:00,
2013-03-21 09:34:00,78.0,69.1,30.06,ESE,117,2.0,5.0,74,0.00,,---,0.00,VWS V14.00,2013-03-21 19:34:00,
2013-03-21 09:39:00,78.1,68.8,30.06,ESE,123,1.0,9.0,73,0.00,,---,0.00,VWS V14.00,2013-03-21 19:39:00,
2013-03-21 09:44:00,78.0,69.1,30.05,ENE,69,2.0,9.0,74,0.00,,---,0.00,VWS V14.00,2013-03-21 19:44:00,
2013-03-21 09:49:00,78.1,68.8,30.06,ENE,75,1.0,9.0,73,0.00,,---,0.00,VWS V14.00,2013-03-21 19:49:00,
2013-03-21 09:54:00,78.1,68.3,30.06,East,96,1.0,11.0,72,0.00,,---,0.00,VWS V14.00,2013-03-21 19:54:00,
2013-03-21 09:59:00,78.3,68.5,30.06,ESE,117,4.0,11.0,72,0.00,,---,0.00,VWS V14.00,2013-03-21 19:59:00,
2013-03-21 10:04:00,78.5,68.7,30.05,SE,140,4.0,8.0,72,0.00,,---,0.00,VWS V14.00,2013-03-21 20:04:00,
2013-03-21 10:09:00,78.5,68.7,30.05,SE,134,4.0,12.0,72,0.00,,---,0.00,VWS V14.00,2013-03-21 20:09:00,
2013-03-21 10:14:00,78.5,69.1,30.05,East,86,6.0,12.0,73,0.00,,---,0.00,VWS V14.00,2013-03-21 20:14:00,
2013-03-21 10:19:00,78.3,68.9,30.05,ENE,77,5.0,12.0,73,0.00,,---,0.00,VWS V14.00,2013-03-21 20:19:00,
2013-03-21 10:24:00,78.4,69.0,30.05,SE,132,5.0,12.0,73,0.00,,---,0.00,VWS V14.00,2013-03-21 20:24:00,
2013-03-21 10:29:00,78.6,68.8,30.05,ENE,78,3.0,12.0,72,0.00,,---,0.00,VWS V14.00,2013-03-21 20:29:00,
2013-03-21 10:34:00,78.2,68.4,30.05,SE,140,5.0,12.0,72,0.00,,---,0.00,VWS V14.00,2013-03-21 20:34:00,
2013-03-21 10:39:00,78.1,68.8,30.04,SSE,157,4.0,12.0,73,0.00,,---,0.00,VWS V14.00,2013-03-21 20:39:00,
2013-03-21 10:44:00,78.3,68.5,30.04,SE,134,9.0,12.0,72,0.00,,---,0.00,VWS V14.00,2013-03-21 20:44:00,
2013-03-21 10:49:00,78.3,68.1,30.04,SE,141,7.0,13.0,71,0.00,,---,0.00,VWS V14.00,2013-03-21 20:49:00,
2013-03-21 10:54:00,78.4,68.2,30.04,ESE,115,2.0,13.0,71,0.00,,---,0.00,VWS V14.00,2013-03-21 20:54:00,
2013-03-21 10:59:00,78.6,68.4,30.04,ENE,74,5.0,13.0,71,0.00,,---,0.00,VWS V14.00,2013-03-21 20:59:00,
2013-03-21 11:04:00,79.0,68.8,30.04,East,92,2.0,6.0,71,0.00,,---,0.00,VWS V14.00,2013-03-21 21:04:00,
2013-03-21 11:09:00,79.1,68.9,30.03,ESE,105,5.0,8.0,71,0.00,,---,0.00,VWS V14.00,2013-03-21 21:09:00,
2013-03-21 11:14:00,79.3,68.7,30.03,ESE,119,7.0,8.0,70,0.00,,---,0.00,VWS V14.00,2013-03-21 21:14:00,
2013-03-21 11:19:00,79.1,68.5,30.03,East,97,2.0,10.0,70,0.00,,---,0.00,VWS V14.00,2013-03-21 21:19:00,
2013-03-21 11:24:00,79.2,68.6,30.03,SE,136,5.0,10.0,70,0.00,,---,0.00,VWS V14.00,2013-03-21 21:24:00,
2013-03-21 11:29:00,79.4,68.8,30.03,East,85,4.0,10.0,70,0.00,,---,0.00,VWS V14.00,2013-03-21 21:29:00,
2013-03-21 11:34:00,79.6,69.0,30.03,ESE,103,4.0,6.0,70,0.00,,---,0.00,VWS V14.00,2013-03-21 21:34:00,
2013-03-21 11:39:00,79.9,68.8,30.03,ENE,66,5.0,9.0,69,0.00,,---,0.00,VWS V14.00,2013-03-21 21:39:00,
2013-03-21 11:44:00,80.1,68.6,30.02,SE,130,4.0,9.0,68,0.00,,---,0.00,VWS V14.00,2013-03-21 21:44:00,
2013-03-21 11:49:00,80.2,68.7,30.02,ESE,117,4.0,9.0,68,0.00,,---,0.00,VWS V14.00,2013-03-21 21:49:00,
2013-03-21 11:54:00,80.2,68.3,30.02,ENE,71,4.0,12.0,67,0.00,,---,0.00,VWS V14.00,2013-03-21 21:54:00,
2013-03-21 11:59:00,80.0,68.5,30.02,East,79,4.0,12.0,68,0.00,,---,0.00,VWS V14.00,2013-03-21 21:59:00,
2013-03-21 12:04:00,80.2,68.7,30.01,ESE,117,5.0,9.0,68,0.00,,---,0.00,VWS V14.00,2013-03-21 22:04:00,
2013-03-21 12:09:00,80.1,69.0,30.02,SE,134,7.0,15.0,69,0.00,,---,0.00,VWS V14.00,2013-03-21 22:09:00,
2013-03-21 12:14:00,80.2,69.5,30.01,East,88,3.0,15.0,70,0.00,,---,0.00,VWS V14.00,2013-03-21 22:14:00,
2013-03-21 12:19:00,80.5,69.0,30.01,SE,135,8.0,15.0,68,0.00,,---,0.00,VWS V14.00,2013-03-21 22:19:00,
2013-03-21 12:24:00,80.5,68.1,30.01,SSE,155,2.0,15.0,66,0.00,,---,0.00,VWS V14.00,2013-03-21 22:24:00,
2013-03-21 12:29:00,80.5,68.5,30.01,East,99,5.0,15.0,67,0.00,,---,0.00,VWS V14.00,2013-03-21 22:29:00,
2013-03-21 12:34:00,80.6,69.5,30.00,SE,129,2.0,6.0,69,0.00,,---,0.00,VWS V14.00,2013-03-21 22:34:00,
2013-03-21 12:39:00,80.5,69.8,30.00,ESE,118,7.0,13.0,70,0.00,,---,0.00,VWS V14.00,2013-03-21 22:39:00,
2013-03-21 12:44:00,80.2,69.5,30.00,SE,142,10.0,17.0,70,0.00,,---,0.00,VWS V14.00,2013-03-21 22:44:00,
2013-03-21 12:49:00,80.0,69.8,30.01,SE,129,8.0,17.0,71,0.00,,---,0.00,VWS V14.00,2013-03-21 22:49:00,
2013-03-21 12:54:00,79.8,69.2,30.00,ESE,103,6.0,17.0,70,0.00,,---,0.00,VWS V14.00,2013-03-21 22:54:00,
2013-03-21 12:59:00,80.2,69.5,30.00,SSE,167,6.0,17.0,70,0.00,,---,0.00,VWS V14.00,2013-03-21 22:59:00,
2013-03-21 13:04:00,80.1,69.4,30.00,SE,144,6.0,10.0,70,0.00,,---,0.00,VWS V14.00,2013-03-21 23:04:00,
2013-03-21 13:09:00,80.3,69.6,29.99,SE,142,5.0,11.0,70,0.00,,---,0.00,VWS V14.00,2013-03-21 23:09:00,
2013-03-21 13:14:00,80.3,70.1,29.99,ESE,113,6.0,12.0,71,0.00,,---,0.00,VWS V14.00,2013-03-21 23:14:00,
2013-03-21 13:19:00,80.9,69.8,29.99,East,94,1.0,12.0,69,0.00,,---,0.00,VWS V14.00,2013-03-21 23:19:00,
2013-03-21 13:24:00,81.3,69.7,29.99,East,99,6.0,12.0,68,0.00,,---,0.00,VWS V14.00,2013-03-21 23:24:00,
2013-03-21 13:29:00,81.3,69.3,29.98,ENE,67,5.0,12.0,67,0.00,,---,0.00,VWS V14.00,2013-03-21 23:29:00,
2013-03-21 13:34:00,81.2,69.2,29.98,East,101,6.0,13.0,67,0.00,,---,0.00,VWS V14.00,2013-03-21 23:34:00,
2013-03-21 13:39:00,80.9,69.4,29.98,SE,141,5.0,14.0,68,0.00,,---,0.00,VWS V14.00,2013-03-21 23:39:00,
2013-03-21 13:44:00,80.2,69.1,29.98,ENE,78,5.0,14.0,69,0.00,,---,0.00,VWS V14.00,2013-03-21 23:44:00,
2013-03-21 13:49:00,80.3,69.2,29.98,SE,125,0.0,14.0,69,0.00,,---,0.00,VWS V14.00,2013-03-21 23:49:00,
2013-03-21 13:54:00,80.3,69.6,29.98,ESE,116,4.0,14.0,70,0.00,,---,0.00,VWS V14.00,2013-03-21 23:54:00,
2013-03-21 13:59:00,80.2,69.5,29.97,SE,130,8.0,14.0,70,0.00,,---,0.00,VWS V14.00,2013-03-21 23:59:00,
2013-03-21 14:04:00,80.5,70.2,29.97,ESE,109,1.0,8.0,71,0.00,,---,0.00,VWS V14.00,2013-03-22 00:04:00,
2013-03-21 14:09:00,80.8,69.7,29.97,East,92,2.0,10.0,69,0.00,,---,0.00,VWS V14.00,2013-03-22 00:09:00,
2013-03-21 14:14:00,80.7,70.0,29.97,SE,132,4.0,11.0,70,0.00,,---,0.00,VWS V14.00,2013-03-22 00:14:00,
2013-03-21 14:19:00,80.6,70.3,29.97,ESE,105,2.0,11.0,71,0.00,,---,0.00,VWS V14.00,2013-03-22 00:19:00,
2013-03-21 14:24:00,80.6,70.3,29.97,SE,134,13.0,13.0,71,0.00,,---,0.00,VWS V14.00,2013-03-22 00:24:00,
2013-03-21 14:29:00,80.3,70.5,29.97,SE,137,2.0,13.0,72,0.00,,---,0.00,VWS V14.00,2013-03-22 00:29:00,
2013-03-21 14:34:00,80.0,70.6,29.96,East,84,3.0,10.0,73,0.00,,---,0.00,VWS V14.00,2013-03-22 00:34:00,
2013-03-21 14:39:00,79.9,70.1,29.96,SE,136,2.0,12.0,72,0.00,,---,0.00,VWS V14.00,2013-03-22 00:39:00,
2013-03-21 14:44:00,79.8,70.4,29.96,SE,138,2.0,12.0,73,0.00,,---,0.00,VWS V14.00,2013-03-22 00:44:00,
2013-03-21 14:49:00,80.0,70.6,29.96,SE,132,2.0,12.0,73,0.00,,---,0.00,VWS V14.00,2013-03-22 00:49:00,
2013-03-21 14:54:00,80.2,70.4,29.96,SE,133,7.0,12.0,72,0.00,,---,0.00,VWS V14.00,2013-03-22 00:54:00,
2013-03-21 14:59:00,80.1,69.9,29.96,SE,134,7.0,12.0,71,0.00,,---,0.00,VWS V14.00,2013-03-22 00:59:00,
2013-03-21 15:04:00,80.4,70.1,29.96,ESE,119,7.0,11.0,71,0.00,,---,0.00,VWS V14.00,2013-03-22 01:04:00,
2013-03-21 15:09:00,80.8,70.5,29.96,SSE,151,6.0,12.0,71,0.00,,---,0.00,VWS V14.00,2013-03-22 01:09:00,
2013-03-21 15:14:00,80.9,70.6,29.96,SE,135,0.0,12.0,71,0.00,,---,0.00,VWS V14.00,2013-03-22 01:14:00,
2013-03-21 15:19:00,80.8,69.7,29.96,ENE,66,4.0,12.0,69,0.00,,---,0.00,VWS V14.00,2013-03-22 01:19:00,
2013-03-21 15:24:00,80.6,70.3,29.96,ESE,120,2.0,12.0,71,0.00,,---,0.00,VWS V14.00,2013-03-22 01:24:00,
2013-03-21 15:29:00,80.3,69.6,29.96,ESE,102,2.0,12.0,70,0.00,,---,0.00,VWS V14.00,2013-03-22 01:29:00,
2013-03-21 15:34:00,79.8,69.2,29.96,SE,138,0.0,7.0,70,0.00,,---,0.00,VWS V14.00,2013-03-22 01:34:00,
2013-03-21 15:39:00,79.6,69.4,29.96,SSE,148,4.0,9.0,71,0.00,,---,0.00,VWS V14.00,2013-03-22 01:39:00,
2013-03-21 15:44:00,79.1,69.3,29.96,ESE,121,2.0,10.0,72,0.00,,---,0.00,VWS V14.00,2013-03-22 01:44:00,
2013-03-21 15:49:00,78.9,69.1,29.96,SE,140,1.0,11.0,72,0.00,,---,0.00,VWS V14.00,2013-03-22 01:49:00,
2013-03-21 15:54:00,79.1,69.7,29.95,East,100,5.0,11.0,73,0.00,,---,0.00,VWS V14.00,2013-03-22 01:54:00,
2013-03-21 15:59:00,79.4,69.2,29.95,ESE,119,1.0,11.0,71,0.00,,---,0.00,VWS V14.00,2013-03-22 01:59:00,
2013-03-21 16:04:00,79.6,68.1,29.95,East,96,4.0,7.0,68,0.00,,---,0.00,VWS V14.00,2013-03-22 02:04:00,
2013-03-21 16:09:00,79.8,68.3,29.95,East,91,1.0,7.0,68,0.00,,---,0.00,VWS V14.00,2013-03-22 02:09:00,
2013-03-21 16:14:00,80.4,68.0,29.95,East,94,4.0,7.0,66,0.00,,---,0.00,VWS V14.00,2013-03-22 02:14:00,
2013-03-21 16:19:00,80.8,65.6,29.95,South,181,6.0,13.0,60,0.00,,---,0.00,VWS V14.00,2013-03-22 02:19:00,
2013-03-21 16:24:00,81.1,65.4,29.96,WSW,251,1.0,13.0,59,0.00,,---,0.00,VWS V14.00,2013-03-22 02:24:00,
2013-03-21 16:29:00,81.2,65.5,29.96,WSW,238,2.0,13.0,59,0.00,,---,0.00,VWS V14.00,2013-03-22 02:29:00,
2013-03-21 16:34:00,81.4,65.2,29.96,SW,215,2.0,3.0,58,0.00,,---,0.00,VWS V14.00,2013-03-22 02:34:00,
2013-03-21 16:39:00,81.6,65.4,29.96,SW,229,2.0,7.0,58,0.00,,---,0.00,VWS V14.00,2013-03-22 02:39:00,
2013-03-21 16:44:00,81.5,65.3,29.96,South,185,2.0,8.0,58,0.00,,---,0.00,VWS V14.00,2013-03-22 02:44:00,
2013-03-21 16:49:00,81.5,65.8,29.97,South,178,4.0,8.0,59,0.00,,---,0.00,VWS V14.00,2013-03-22 02:49:00,
2013-03-21 16:54:00,81.5,65.3,29.96,South,185,2.0,8.0,58,0.00,,---,0.00,VWS V14.00,2013-03-22 02:54:00,
2013-03-21 16:59:00,81.3,64.6,29.96,South,190,2.0,8.0,57,0.00,,---,0.00,VWS V14.00,2013-03-22 02:59:00,
2013-03-21 17:04:00,81.1,64.9,29.97,South,186,1.0,4.0,58,0.00,,---,0.00,VWS V14.00,2013-03-22 03:04:00,
2013-03-21 17:09:00,81.0,65.3,29.97,WSW,241,2.0,7.0,59,0.00,,---,0.00,VWS V14.00,2013-03-22 03:09:00,
2013-03-21 17:14:00,80.5,65.3,29.97,SSW,193,1.0,12.0,60,0.00,,---,0.00,VWS V14.00,2013-03-22 03:14:00,
2013-03-21 17:19:00,80.4,64.8,29.97,SSW,197,3.0,12.0,59,0.00,,---,0.00,VWS V14.00,2013-03-22 03:19:00,
2013-03-21 17:24:00,80.3,64.7,29.97,South,186,0.0,12.0,59,0.00,,---,0.00,VWS V14.00,2013-03-22 03:24:00,
2013-03-21 17:29:00,80.3,64.7,29.98,SSW,196,3.0,12.0,59,0.00,,---,0.00,VWS V14.00,2013-03-22 03:29:00,
2013-03-21 17:34:00,80.2,64.1,29.98,SSW,193,1.0,11.0,58,0.00,,---,0.00,VWS V14.00,2013-03-22 03:34:00,
2013-03-21 17:39:00,80.0,63.9,29.97,SSW,193,2.0,11.0,58,0.00,,---,0.00,VWS V14.00,2013-03-22 03:39:00,
2013-03-21 17:44:00,79.9,65.3,29.98,SSW,193,1.0,11.0,61,0.00,,---,0.00,VWS V14.00,2013-03-22 03:44:00,
2013-03-21 17:49:00,79.9,64.3,29.97,SSW,198,3.0,11.0,59,0.00,,---,0.00,VWS V14.00,2013-03-22 03:49:00,
2013-03-21 17:54:00,79.8,64.7,29.97,SSW,198,1.0,11.0,60,0.00,,---,0.00,VWS V14.00,2013-03-22 03:54:00,
2013-03-21 17:59:00,79.7,64.6,29.97,SSW,205,3.0,11.0,60,0.00,,---,0.00,VWS V14.00,2013-03-22 03:59:00,
2013-03-21 18:00:00,79.6,64.5,29.98,SSW,209,3.0,11.0,60,0.00,,---,0.00,VWS V14.00,2013-03-22 04:00:00,
2013-03-21 18:05:00,79.4,64.3,29.98,SE,142,2.0,8.0,60,0.00,,---,0.00,VWS V14.00,2013-03-22 04:05:00,
2013-03-21 18:10:00,79.2,65.1,29.98,SE,143,0.0,8.0,62,0.00,,---,0.00,VWS V14.00,2013-03-22 04:10:00,
2013-03-21 18:15:00,79.1,65.0,29.98,SE,143,0.0,8.0,62,0.00,,---,0.00,VWS V14.00,2013-03-22 04:15:00,
2013-03-21 18:20:00,78.9,64.8,29.98,SE,143,1.0,8.0,62,0.00,,---,0.00,VWS V14.00,2013-03-22 04:20:00,
2013-03-21 18:25:00,78.7,64.6,29.98,SE,143,0.0,8.0,62,0.00,,---,0.00,VWS V14.00,2013-03-22 04:25:00,
2013-03-21 18:30:00,78.5,64.4,29.98,SE,143,0.0,8.0,62,0.00,,---,0.00,VWS V14.00,2013-03-22 04:30:00,
2013-03-21 18:35:00,78.4,64.3,29.98,SE,143,1.0,1.0,62,0.00,,---,0.00,VWS V14.00,2013-03-22 04:35:00,
2013-03-21 18:40:00,78.3,64.7,29.99,SE,143,0.0,2.0,63,0.00,,---,0.00,VWS V14.00,2013-03-22 04:40:00,
2013-03-21 18:45:00,78.2,64.1,29.99,SE,143,0.0,2.0,62,0.00,,---,0.00,VWS V14.00,2013-03-22 04:45:00,
2013-03-21 18:50:00,78.1,64.5,29.99,SE,143,0.0,2.0,63,0.00,,---,0.00,VWS V14.00,2013-03-22 04:50:00,
2013-03-21 18:55:00,77.9,64.3,29.99,SE,143,0.0,4.0,63,0.00,,---,0.00,VWS V14.00,2013-03-22 04:55:00,
2013-03-21 19:00:00,77.8,63.8,29.99,SE,143,0.0,4.0,62,0.00,,---,0.00,VWS V14.00,2013-03-22 05:00:00,
2013-03-21 19:05:00,77.8,64.2,29.99,SE,143,1.0,4.0,63,0.00,,---,0.00,VWS V14.00,2013-03-22 05:05:00,
2013-03-21 19:10:00,77.7,63.7,29.99,SE,143,0.0,4.0,62,0.00,,---,0.00,VWS V14.00,2013-03-22 05:10:00,
2013-03-21 19:15:00,77.6,64.0,30.00,SE,143,0.0,5.0,63,0.00,,---,0.00,VWS V14.00,2013-03-22 05:15:00,
2013-03-21 19:20:00,77.7,63.7,30.00,SE,143,1.0,5.0,62,0.00,,---,0.00,VWS V14.00,2013-03-22 05:20:00,
2013-03-21 19:25:00,77.7,63.7,30.01,SE,143,0.0,5.0,62,0.00,,---,0.00,VWS V14.00,2013-03-22 05:25:00,
2013-03-21 19:30:00,77.7,63.7,30.01,SSE,154,4.0,6.0,62,0.00,,---,0.00,VWS V14.00,2013-03-22 05:30:00,
2013-03-21 19:35:00,77.7,63.7,30.00,ENE,75,0.0,5.0,62,0.00,,---,0.00,VWS V14.00,2013-03-22 05:35:00,
2013-03-21 19:40:00,77.7,63.7,30.01,East,98,2.0,7.0,62,0.00,,---,0.00,VWS V14.00,2013-03-22 05:40:00,
2013-03-21 19:45:00,77.7,64.1,30.01,East,98,4.0,7.0,63,0.00,,---,0.00,VWS V14.00,2013-03-22 05:45:00,
2013-03-21 19:50:00,77.7,63.7,30.01,East,99,0.0,7.0,62,0.00,,---,0.00,VWS V14.00,2013-03-22 05:50:00,
2013-03-21 19:55:00,77.6,64.0,30.01,SW,227,0.0,7.0,63,0.00,,---,0.00,VWS V14.00,2013-03-22 05:55:00,
2013-03-21 20:00:00,77.5,63.9,30.02,WSW,238,1.0,7.0,63,0.00,,---,0.00,VWS V14.00,2013-03-22 06:00:00,
2013-03-21 20:05:00,77.5,63.9,30.02,South,184,5.0,7.0,63,0.00,,---,0.00,VWS V14.00,2013-03-22 06:05:00,
2013-03-21 20:10:00,77.4,63.8,30.02,South,174,4.0,8.0,63,0.00,,---,0.00,VWS V14.00,2013-03-22 06:10:00,
2013-03-21 20:15:00,77.3,64.2,30.02,South,174,0.0,8.0,64,0.00,,---,0.00,VWS V14.00,2013-03-22 06:15:00,
2013-03-21 20:20:00,77.3,64.2,30.02,South,174,1.0,8.0,64,0.00,,---,0.00,VWS V14.00,2013-03-22 06:20:00,
2013-03-21 20:25:00,77.3,64.6,30.02,South,177,2.0,8.0,65,0.00,,---,0.00,VWS V14.00,2013-03-22 06:25:00,
2013-03-21 20:30:00,77.3,65.1,30.02,South,178,0.0,8.0,66,0.00,,---,0.00,VWS V14.00,2013-03-22 06:30:00,
2013-03-21 20:35:00,77.3,65.5,30.02,South,178,1.0,4.0,67,0.00,,---,0.00,VWS V14.00,2013-03-22 06:35:00,
2013-03-21 20:40:00,77.1,65.3,30.02,South,186,5.0,10.0,67,0.00,,---,0.00,VWS V14.00,2013-03-22 06:40:00,
2013-03-21 20:45:00,76.9,65.5,30.02,WSW,240,1.0,10.0,68,0.00,,---,0.00,VWS V14.00,2013-03-22 06:45:00,
2013-03-21 20:50:00,76.9,65.5,30.03,WSW,238,0.0,10.0,68,0.00,,---,0.00,VWS V14.00,2013-03-22 06:50:00,
2013-03-21 20:55:00,76.8,65.4,30.03,WSW,238,0.0,10.0,68,0.00,,---,0.00,VWS V14.00,2013-03-22 06:55:00,
2013-03-21 21:00:00,76.7,65.8,30.03,WSW,240,1.0,10.0,69,0.00,,---,0.00,VWS V14.00,2013-03-22 07:00:00,
2013-03-21 21:05:00,76.7,65.8,30.03,WSW,240,0.0,1.0,69,0.00,,---,0.00,VWS V14.00,2013-03-22 07:05:00,
2013-03-21 21:10:00,76.7,65.8,30.03,WSW,240,1.0,2.0,69,0.00,,---,0.00,VWS V14.00,2013-03-22 07:10:00,
2013-03-21 21:15:00,76.6,66.1,30.03,SW,227,5.0,5.0,70,0.00,,---,0.00,VWS V14.00,2013-03-22 07:15:00,
2013-03-21 21:20:00,76.6,66.1,30.03,SW,226,0.0,5.0,70,0.00,,---,0.00,VWS V14.00,2013-03-22 07:20:00,
2013-03-21 21:25:00,76.6,66.1,30.04,SSE,161,6.0,9.0,70,0.00,,---,0.00,VWS V14.00,2013-03-22 07:25:00,
2013-03-21 21:30:00,76.6,66.1,30.04,SSE,161,0.0,9.0,70,0.00,,---,0.00,VWS V14.00,2013-03-22 07:30:00,
2013-03-21 21:35:00,76.6,66.1,30.04,SSE,161,1.0,4.0,70,0.00,,---,0.00,VWS V14.00,2013-03-22 07:35:00,
2013-03-21 21:40:00,76.7,66.2,30.04,SSE,163,0.0,8.0,70,0.00,,---,0.00,VWS V14.00,2013-03-22 07:40:00,
2013-03-21 21:45:00,76.7,66.2,30.04,SSE,163,0.0,8.0,70,0.00,,---,0.00,VWS V14.00,2013-03-22 07:45:00,
2013-03-21 21:50:00,76.7,66.2,30.04,SSE,163,2.0,8.0,70,0.00,,---,0.00,VWS V14.00,2013-03-22 07:50:00,
2013-03-21 21:55:00,76.6,66.5,30.04,SSE,163,0.0,8.0,71,0.00,,---,0.00,VWS V14.00,2013-03-22 07:55:00,
2013-03-21 22:00:00,76.6,66.5,30.04,SSE,163,4.0,8.0,71,0.00,,---,0.00,VWS V14.00,2013-03-22 08:00:00,
2013-03-21 22:05:00,76.6,66.5,30.04,SSE,163,6.0,6.0,71,0.00,,---,0.00,VWS V14.00,2013-03-22 08:05:00,
2013-03-21 22:10:00,76.5,66.4,30.03,SSW,202,4.0,9.0,71,0.00,,---,0.00,VWS V14.00,2013-03-22 08:10:00,
2013-03-21 22:15:00,76.6,66.1,30.03,South,174,5.0,17.0,70,0.00,,---,0.00,VWS V14.00,2013-03-22 08:15:00,
2013-03-21 22:20:00,76.7,66.2,30.03,South,177,5.0,17.0,70,0.00,,---,0.00,VWS V14.00,2013-03-22 08:20:00,
2013-03-21 22:25:00,76.7,65.8,30.03,South,181,2.0,17.0,69,0.00,,---,0.00,VWS V14.00,2013-03-22 08:25:00,
2013-03-21 22:30:00,76.8,66.3,30.04,SSW,198,2.0,17.0,70,0.00,,---,0.00,VWS V14.00,2013-03-22 08:30:00,
2013-03-21 22:35:00,76.8,66.3,30.04,South,190,3.0,6.0,70,0.00,,---,0.00,VWS V14.00,2013-03-22 08:35:00,
2013-03-21 22:40:00,76.9,66.8,30.04,SSW,192,4.0,11.0,71,0.00,,---,0.00,VWS V14.00,2013-03-22 08:40:00,
2013-03-21 22:45:00,76.8,66.3,30.04,South,183,11.0,11.0,70,0.00,,---,0.00,VWS V14.00,2013-03-22 08:45:00,
2013-03-21 22:50:00,76.9,66.4,30.04,SW,224,4.0,18.0,70,0.00,,---,0.00,VWS V14.00,2013-03-22 08:50:00,
2013-03-21 22:55:00,77.0,66.1,30.03,SSW,198,1.0,18.0,69,0.00,,---,0.00,VWS V14.00,2013-03-22 08:55:00,
2013-03-21 22:59:00,77.0,66.1,30.03,South,178,8.0,18.0,69,0.00,,---,0.00,VWS V14.00,2013-03-22 08:59:00,
2013-03-21 23:04:00,77.0,66.9,30.02,SSW,196,3.0,9.0,71,0.00,,---,0.00,VWS V14.00,2013-03-22 09:04:00,
2013-03-21 23:09:00,76.9,66.8,30.02,South,183,9.0,17.0,71,0.00,,---,0.00,VWS V14.00,2013-03-22 09:09:00,
2013-03-21 23:14:00,76.8,66.3,30.02,SSW,197,3.0,17.0,70,0.00,,---,0.00,VWS V14.00,2013-03-22 09:14:00,
2013-03-21 23:19:00,76.9,66.8,30.02,SSW,194,3.0,17.0,71,0.00,,---,0.00,VWS V14.00,2013-03-22 09:19:00,
2013-03-21 23:24:00,76.9,66.8,30.03,SW,232,2.0,17.0,71,0.00,,---,0.00,VWS V14.00,2013-03-22 09:24:00,
2013-03-21 23:29:00,76.9,67.2,30.03,WSW,242,8.0,19.0,72,0.00,,---,0.00,VWS V14.00,2013-03-22 09:29:00,
2013-03-21 23:34:00,76.8,67.5,30.03,SW,235,1.0,5.0,73,0.00,,---,0.00,VWS V14.00,2013-03-22 09:34:00,
2013-03-21 23:39:00,76.8,67.5,30.03,West,265,1.0,7.0,73,0.00,,---,0.00,VWS V14.00,2013-03-22 09:39:00,
2013-03-21 23:44:00,76.6,67.3,30.02,WSW,245,3.0,7.0,73,0.00,,---,0.00,VWS V14.00,2013-03-22 09:44:00,
2013-03-21 23:49:00,76.6,67.3,30.01,SW,236,4.0,7.0,73,0.00,,---,0.00,VWS V14.00,2013-03-22 09:49:00,
2013-03-21 23:54:00,76.6,66.5,30.01,SSW,205,7.0,12.0,71,0.00,,---,0.00,VWS V14.00,2013-03-22 09:54:00,
2013-03-21 23:59:00,76.7,66.2,30.01,South,175,9.0,12.0,70,0.00,,---,0.00,VWS V14.00,2013-03-22 09:59:00,